Flag for U.S.A. Weather past 2 weeks in Spokane, Washington, U.S.A.

Now
64 °F

Passing clouds.


Feels Like: 64 °F
Forecast: 64 / 93 °F
Wind: 7 mph from Northeast

Location: Felts Field

Current Time: Jul 7, 2015 at 6:49:51 AM

Latest Report: Jul 7, 2015 at 5:53 AM


Visibility: 8 mi

Pressure: 29.88 "Hg (27.95 "Hg at 569m altitude)

Humidity: 63%

Dew point: 51 °F

Location of SpokaneLocation

Historic Weather in Spokane — Graph

°F

Spokane temperature yesterday

Maximum temperature yesterday: 92 °F (at 3:53 PM)
Minimum temperature yesterday: 60 °F (at 5:53 AM)
Average temperature yesterday: 78 °F

Past Weeks' High & Low Weather Summary

 TemperatureHumidityPressure
High107 °F (Jun 28, 3:53 PM)76% (Jun 30, 5:53 AM)30.11 "Hg (Jun 30, 5:53 AM)
Low53 °F (Jun 22, 4:53 AM)12% (Jul 3, 2:53 PM)29.59 "Hg (Jul 4, 6:53 PM)
Average80 °F35%29.90 "Hg
* Reported Jun 22 4:53 AM — Jul 7 4:53 AM, Spokane, Weather by CustomWeather, © 2015

Note: Actual official high and low records may vary slightly from our data, if they occured in-between our weather recording intervals... More about our weather records

Advertising

Spokane weather history for previous 24 hours

 ConditionsComfort  
Time TempWeatherWind HumidityBarometerVisibility
4:53 AM
Tue, Jul 7
61 °FPassing clouds.3 mph67%29.88 "Hg9 mi
3:53 AM63 °FClear.No wind58%29.86 "Hg9 mi
2:53 AM65 °FClear.No wind54%29.87 "Hg9 mi
1:53 AM68 °FClear.No wind47%29.86 "Hg9 mi
12:53 AM69 °FClear.No wind44%29.87 "Hg10 mi
11:53 PM
Mon, Jul 6
72 °FClear.3 mph38%29.86 "Hg10 mi
10:53 PM75 °FClear.No wind34%29.86 "Hg10 mi
9:53 PM76 °FClear.No wind32%29.86 "Hg10 mi
8:53 PM83 °FSunny.3 mph24%29.84 "Hg10 mi
7:53 PM87 °FPassing clouds.9 mph21%29.84 "Hg10 mi
6:53 PM91 °FSunny.10 mph18%29.85 "Hg10 mi
5:53 PM92 °FPassing clouds.3 mph18%29.87 "Hg10 mi
4:53 PM91 °FScattered clouds.7 mph17%29.90 "Hg10 mi
3:53 PM92 °FScattered clouds.5 mph16%29.91 "Hg10 mi
2:53 PM91 °FScattered clouds.No wind17%29.93 "Hg10 mi
1:53 PM89 °FScattered clouds.7 mph17%29.96 "Hg10 mi
12:53 PM89 °FPassing clouds.3 mph19%29.98 "Hg10 mi
11:53 AM84 °FSunny.5 mph26%30.00 "Hg9 mi
10:53 AM80 °FSunny.9 mph29%30.01 "Hg10 mi
9:53 AM78 °FSunny.5 mph31%30.01 "Hg10 mi
8:53 AM74 °FSunny.No wind36%30.02 "Hg10 mi
7:53 AM69 °FSunny.No wind41%30.03 "Hg10 mi
6:53 AM65 °FSunny.No wind47%30.02 "Hg10 mi
Weather by CustomWeather, © 2015

See weather overviewHow to use our weather pages